This is the latest recevied weather packets stored in our database for station/object KU9TRY. If no packets are shown the sender has not sent any weather packets the latest 10 day(s).
| Time | Temp. | Humidity | Pressure | Rain* | Wind** | Luminosity | Snow |
|---|---|---|---|---|---|---|---|
| 1787866817 | 29.44° C | 61% | 1014.2 hPa | 0 mm | - | 42 W/m² | - |
| 1787866512 | 29.44° C | 61% | 1014.3 hPa | 0 mm | - | 43 W/m² | - |
| 1787866211 | 30° C | 62% | 1014.2 hPa | 0 mm | - | 44 W/m² | - |
| 1787865906 | 30° C | 60% | 1014 hPa | 0 mm | - | 46 W/m² | - |
| 1787865601 | 30.56° C | 58% | 1014.1 hPa | 0 mm | - | 47 W/m² | - |
| 1787865296 | 30.56° C | 59% | 1013.9 hPa | 0 mm | - | 49 W/m² | - |
| 1787864992 | 30.56° C | 58% | 1014.2 hPa | 0 mm | - | 55 W/m² | - |
| 1787864688 | 30.56° C | 53% | 1014.1 hPa | 0 mm | - | 64 W/m² | - |
| 1787864386 | 30.56° C | 53% | 1014 hPa | 0 mm | - | 67 W/m² | - |
| 1787864086 | 31.11° C | 59% | 1014 hPa | 0 mm | - | 67 W/m² | - |
| 1787863785 | 31.11° C | 55% | 1014.3 hPa | 0 mm | - | 68 W/m² | - |
| 1787863483 | 31.11° C | 54% | 1014.3 hPa | 0 mm | - | 71 W/m² | - |
| 1787863180 | 31.11° C | 60% | 1014.3 hPa | 0 mm | - | 77 W/m² | - |
| 1787862876 | 30.56° C | 61% | 1014.4 hPa | 0 mm | - | 83 W/m² | - |
| 1787862575 | 30° C | 56% | 1014.3 hPa | 0 mm | - | 88 W/m² | - |
| 1787862270 | 30° C | 62% | 1014.4 hPa | 0 mm | - | 94 W/m² | - |
| 1787861965 | 29.44° C | 64% | 1014.5 hPa | 0 mm | - | 102 W/m² | - |
| 1787861665 | 29.44° C | 62% | 1014.6 hPa | 0 mm | - | 85 W/m² | - |
| 1787861363 | 30° C | 62% | 1014.6 hPa | 0 mm | - | 72 W/m² | - |
| 1787861058 | 30° C | 59% | 1014.5 hPa | 0 mm | - | 78 W/m² | - |
| 1787860757 | 30.56° C | 62% | 1014.5 hPa | 0 mm | - | 84 W/m² | - |
| 1787860453 | 30.56° C | 57% | 1014.6 hPa | 0 mm | - | 83 W/m² | - |
| 1787860152 | 30.56° C | 54% | 1014.8 hPa | 0 mm | - | 74 W/m² | - |
| 1787859848 | 31.11° C | 54% | 1014.7 hPa | 0 mm | - | 78 W/m² | - |
| 1787859543 | 31.11° C | 51% | 1014.6 hPa | 0 mm | - | 94 W/m² | - |
* Rain latest hour (hover to see other rain measurements)
** Current wind speed in m/s (hover to see current wind gust speed)